CW2401 Weather Reports


Display with metric or nautical units.
time (UTC)temp
F
wind
direction
speed
MPH
gust
MPH
rain 1hr
in
rain 24hr
in
rain mn
in
humidity
%
barometer
mb
20260506211530 72 240 1.0 5.0 0.00 0.00 0.00 82 1012.6
20260506211330 72 242 1.0 5.0 0.00 0.00 0.00 83 1012.6
20260506211128 72 244 1.0 5.0 0.00 0.00 0.00 82 1012.6
20260506210929 72 232 1.0 5.0 0.00 0.00 0.00 83 1012.6
20260506210727 72 128 1.0 5.0 0.00 0.00 0.00 83 1012.6
20260506210526 72 61 1.0 4.0 0.00 0.00 0.00 83 1012.5
20260506205927 72 145 2.0 5.0 0.00 0.00 0.00 83 1012.6
20260506205725 72 333 2.0 5.0 0.00 0.00 0.00 83 1012.6
20260506205526 71 113 2.0 5.0 0.00 0.00 0.00 83 1012.5
20260506204926 71 74 2.0 6.0 0.00 0.00 0.00 83 1012.6
20260506204725 71 69 2.0 6.0 0.00 0.00 0.00 84 1012.4
20260506204322 71 61 2.0 5.0 0.00 0.00 0.00 84 1012.6
20260506204123 71 299 2.0 5.0 0.00 0.00 0.00 84 1012.5
20260506203924 71 132 2.0 5.0 0.00 0.00 0.00 84 1012.5
20260506203724 71 169 2.0 5.0 0.00 0.00 0.00 84 1012.4
20260506203524 71 55 2.0 5.0 0.00 0.00 0.00 84 1012.4
20260506203323 71 64 2.0 7.0 0.00 0.00 0.00 84 1012.4
20260506203123 71 63 2.0 7.0 0.00 0.00 0.00 85 1012.5
20260506202923 71 350 1.0 7.0 0.00 0.00 0.00 85 1012.5
20260506202723 71 0 1.0 7.0 0.00 0.00 0.00 85 1012.6
20260506202324 71 140 1.0 5.0 0.00 0.00 0.00 85 1012.5
20260506201922 70 112 1.0 5.0 0.00 0.00 0.00 86 1012.4
20260506201523 70 169 1.0 5.0 0.00 0.00 0.00 86 1012.4
20260506201321 70 101 1.0 5.0 0.00 0.00 0.00 86 1012.5
20260506201122 70 100 1.0 5.0 0.00 0.00 0.00 86 1012.5
20260506200920 70 56 1.0 3.0 0.00 0.00 0.00 86 1012.6
20260506200720 70 54 1.0 4.0 0.00 0.00 0.00 86 1012.6
20260506200319 70 190 1.0 4.0 0.00 0.00 0.00 86 1012.6
20260506200121 70 196 1.0 4.0 0.00 0.00 0.00 86 1012.5
20260506195918 70 72 1.0 4.0 0.00 0.00 0.00 86 1012.6
20260506195717 70 244 1.0 4.0 0.00 0.00 0.00 86 1012.7
20260506195518 70 244 1.0 4.0 0.00 0.00 0.00 86 1012.6
20260506195317 70 284 1.0 4.0 0.00 0.00 0.00 87 1012.7
20260506195116 70 197 1.0 4.0 0.00 0.00 0.00 87 1012.8
20260506194918 70 184 1.0 4.0 0.00 0.00 0.00 87 1012.8
20260506194716 70 184 1.0 6.0 0.00 0.00 0.00 86 1012.9
20260506194516 70 190 2.0 6.0 0.00 0.00 0.00 86 1012.9
20260506194315 70 124 1.0 6.0 0.00 0.00 0.00 87 1013.0
20260506194115 70 107 1.0 6.0 0.00 0.00 0.00 87 1013.0
20260506193914 69 262 1.0 6.0 0.00 0.00 0.00 87 1013.1
20260506193711 69 49 1.0 5.0 0.00 0.00 0.00 87 1013.1
20260506193513 69 95 1.0 2.0 0.00 0.00 0.00 87 1012.9
20260506193309 69 96 1.0 3.0 0.00 0.00 0.00 87 1012.8
20260506193107 69 96 1.0 3.0 0.00 0.00 0.00 87 1013.0
20260506192908 69 71 1.0 3.0 0.00 0.00 0.00 87 1013.0
20260506192707 69 71 1.0 3.0 0.00 0.00 0.00 87 1013.0
20260506192508 69 71 1.0 3.0 0.00 0.00 0.00 87 1013.0
20260506192107 69 123 0.0 3.0 0.00 0.00 0.00 87 1013.1
20260506191908 69 111 0.0 2.0 0.00 0.00 0.00 86 1013.2
20260506191707 69 111 0.0 0.0 0.00 0.00 0.00 86 1012.9
20260506191305 69 111 0.0 3.0 0.00 0.00 0.00 86 1012.9
20260506191102 69 111 0.0 3.0 0.00 0.00 0.00 86 1012.9
20260506190701 70 111 1.0 3.0 0.00 0.00 0.00 85 1013.0
20260506190458 70 111 1.0 3.0 0.00 0.00 0.00 85 1013.2
20260506190255 70 111 1.0 2.0 0.00 0.00 0.00 85 1013.4
20260506190054 70 111 1.0 2.0 0.00 0.00 0.00 84 1013.6
20260506185854 70 194 1.0 3.0 0.00 0.00 0.00 84 1013.7
20260506185653 70 180 1.0 3.0 0.00 0.00 0.00 83 1013.8
20260506185454 71 179 1.0 3.0 0.00 0.00 0.00 83 1013.9
20260506185252 71 181 1.0 3.0 0.00 0.00 0.00 83 1014.1
20260506184849 71 63 1.0 3.0 0.00 0.00 0.00 82 1014.4
20260506184447 71 61 2.0 6.0 0.00 0.00 0.00 81 1014.6
20260506184247 71 98 2.0 6.0 0.00 0.00 0.00 80 1014.8
20260506184047 71 62 2.0 6.0 0.00 0.00 0.00 80 1014.9
20260506183846 71 117 2.0 6.0 0.00 0.00 0.00 79 1014.8
20260506183645 71 154 2.0 7.0 0.00 0.00 0.00 79 1014.8
20260506183443 71 16 2.0 7.0 0.00 0.00 0.00 79 1014.8
20260506183242 71 208 2.0 7.0 0.00 0.00 0.00 78 1014.8
20260506183040 71 116 1.0 7.0 0.00 0.00 0.00 79 1014.8
20260506182841 71 175 1.0 7.0 0.00 0.00 0.00 79 1014.8
20260506182641 71 55 1.0 3.0 0.00 0.00 0.00 78 1014.9
20260506182441 71 115 1.0 3.0 0.00 0.00 0.00 78 1014.9
20260506182238 71 106 1.0 3.0 0.00 0.00 0.00 79 1015.0
20260506181836 71 106 1.0 3.0 0.00 0.00 0.00 79 1015.0
20260506181638 71 118 1.0 3.0 0.00 0.00 0.00 79 1014.9
20260506181435 71 143 1.0 3.0 0.00 0.00 0.00 79 1014.8
20260506181236 71 148 2.0 4.0 0.00 0.00 0.00 78 1014.9
20260506180431 71 44 1.0 4.0 0.00 0.00 0.00 80 1014.9
20260506180233 71 14 1.0 4.0 0.00 0.00 0.00 80 1014.8
20260506180031 71 12 1.0 4.0 0.00 0.00 0.00 80 1014.8
20260506175827 71 348 1.0 4.0 0.00 0.00 0.00 80 1014.8
20260506175625 71 355 1.0 4.0 0.00 0.00 0.00 80 1014.9
20260506175425 71 355 1.0 4.0 0.00 0.00 0.00 80 1014.9
20260506175223 70 113 1.0 4.0 0.00 0.00 0.00 80 1014.8
20260506175021 70 113 1.0 4.0 0.00 0.00 0.00 80 1014.9
20260506174820 70 196 1.0 4.0 0.00 0.00 0.00 79 1014.9
20260506174618 70 128 1.0 4.0 0.00 0.00 0.00 80 1015.0
20260506174417 70 148 1.0 3.0 0.00 0.00 0.00 80 1014.8
20260506174216 70 38 1.0 3.0 0.00 0.00 0.00 80 1014.8
20260506174014 70 38 0.0 2.0 0.00 0.00 0.00 81 1014.8
20260506173812 69 34 0.0 2.0 0.00 0.00 0.00 82 1014.8
20260506173613 69 34 0.0 2.0 0.00 0.00 0.00 81 1014.8
20260506173414 69 34 1.0 3.0 0.00 0.00 0.00 81 1014.8
20260506173211 69 34 1.0 3.0 0.00 0.00 0.00 81 1014.9
20260506173010 69 34 1.0 5.0 0.00 0.00 0.00 81 1014.8
20260506172809 69 34 2.0 5.0 0.00 0.00 0.00 81 1014.8
20260506172609 69 34 2.0 5.0 0.00 0.00 0.00 81 1014.8
20260506172405 69 130 1.0 5.0 0.00 0.00 0.00 81 1014.8
20260506172004 69 84 1.0 5.0 0.00 0.00 0.00 82 1014.8
20260506171800 69 75 1.0 3.0 0.00 0.00 0.00 82 1014.9
20260506171603 69 74 0.0 3.0 0.00 0.00 0.00 82 1015.0
20260506171358 69 84 0.0 2.0 0.00 0.00 0.00 82 1015.0
20260506171159 69 82 0.0 2.0 0.00 0.00 0.00 83 1014.9
20260506170758 69 112 0.0 2.0 0.00 0.00 0.00 82 1014.9
20260506170557 68 112 0.0 3.0 0.00 0.00 0.00 83 1015.0
20260506170355 68 112 1.0 3.0 0.00 0.00 0.00 83 1015.1
20260506170152 68 112 1.0 3.0 0.00 0.00 0.00 83 1015.1
20260506165951 68 111 1.0 3.0 0.00 0.00 0.00 83 1015.2
20260506165748 68 111 1.0 5.0 0.00 0.00 0.00 82 1015.1
20260506165550 68 121 1.0 5.0 0.00 0.00 0.00 82 1015.1
20260506165351 68 126 1.0 5.0 0.00 0.00 0.00 83 1015.2
20260506165149 68 101 1.0 5.0 0.00 0.00 0.00 83 1015.2
20260506164547 68 63 1.0 2.0 0.00 0.00 0.00 82 1015.3
20260506164346 68 60 0.0 2.0 0.00 0.00 0.00 82 1015.3
20260506164145 68 60 1.0 2.0 0.00 0.00 0.00 83 1015.3
20260506163944 68 49 0.0 2.0 0.00 0.00 0.00 82 1015.4
20260506163744 68 0 0.0 2.0 0.00 0.00 0.00 82 1015.3
20260506163542 68 98 1.0 2.0 0.00 0.00 0.00 82 1015.3
20260506163338 68 98 1.0 3.0 0.00 0.00 0.00 82 1015.3
20260506163138 68 108 1.0 3.0 0.00 0.00 0.00 83 1015.3
20260506162940 68 108 1.0 3.0 0.00 0.00 0.00 81 1015.2
20260506162741 68 108 1.0 3.0 0.00 0.00 0.00 81 1015.2
20260506162540 68 105 1.0 3.0 0.00 0.00 0.00 81 1015.1
20260506162338 68 105 1.0 2.0 0.00 0.00 0.00 81 1015.2
20260506162138 68 105 1.0 3.0 0.00 0.00 0.00 81 1015.1
20260506161936 68 105 1.0 5.0 0.00 0.00 0.00 81 1015.1
20260506161734 68 142 1.0 5.0 0.00 0.00 0.00 81 1015.1
20260506161534 68 142 1.0 5.0 0.00 0.00 0.00 81 1015.1
20260506161337 68 142 1.0 5.0 0.00 0.00 0.00 81 1015.2
20260506161132 68 88 1.0 5.0 0.00 0.00 0.00 80 1015.2
20260506160930 68 99 1.0 3.0 0.00 0.00 0.00 80 1015.3
20260506160732 68 119 1.0 3.0 0.00 0.00 0.00 80 1015.3
20260506160531 68 34 1.0 3.0 0.00 0.00 0.00 80 1015.3
20260506160331 68 310 1.0 3.0 0.00 0.00 0.00 80 1015.3
20260506160130 68 108 0.0 2.0 0.00 0.00 0.00 80 1015.3
20260506155728 68 108 1.0 3.0 0.00 0.00 0.00 80 1015.3
20260506155528 68 107 1.0 3.0 0.00 0.00 0.00 80 1015.4
20260506155324 68 107 1.0 3.0 0.00 0.00 0.00 80 1015.4
20260506154924 68 107 1.0 3.0 0.00 0.00 0.00 80 1015.5
20260506154723 67 111 1.0 3.0 0.00 0.00 0.00 80 1015.4
20260506154522 67 106 1.0 3.0 0.00 0.00 0.00 80 1015.4
20260506154323 67 80 0.0 3.0 0.00 0.00 0.00 80 1015.4
20260506154123 67 79 1.0 3.0 0.00 0.00 0.00 80 1015.4
20260506153923 67 111 1.0 3.0 0.00 0.00 0.00 79 1015.4
20260506153724 67 111 1.0 3.0 0.00 0.00 0.00 80 1015.3
20260506153524 67 117 1.0 3.0 0.00 0.00 0.00 80 1015.3
20260506153322 67 117 1.0 3.0 0.00 0.00 0.00 80 1015.3
20260506153121 67 190 1.0 3.0 0.00 0.00 0.00 80 1015.3
20260506152920 67 96 0.0 3.0 0.00 0.00 0.00 80 1015.2
20260506152719 67 96 1.0 4.0 0.00 0.00 0.00 80 1015.2
20260506152518 67 96 1.0 4.0 0.00 0.00 0.00 80 1015.3
20260506152319 67 65 0.0 4.0 0.00 0.00 0.00 80 1015.3
20260506152118 67 65 0.0 4.0 0.00 0.00 0.00 80 1015.3
20260506151918 67 65 0.0 4.0 0.00 0.00 0.00 80 1015.3
20260506151718 67 82 0.0 2.0 0.00 0.00 0.00 80 1015.4
20260506151517 67 82 0.0 2.0 0.00 0.00 0.00 80 1015.4
20260506150916 67 82 0.0 3.0 0.00 0.00 0.00 80 1015.3
20260506150714 67 82 0.0 3.0 0.00 0.00 0.00 80 1015.2
20260506150516 67 82 0.0 3.0 0.00 0.00 0.00 79 1015.2
20260506150116 67 82 0.0 3.0 0.00 0.00 0.00 79 1015.1
20260506145916 67 82 0.0 3.0 0.00 0.00 0.00 79 1015.1
20260506145713 67 82 1.0 3.0 0.00 0.00 0.00 79 1015.1
20260506145513 67 82 1.0 3.0 0.00 0.00 0.00 79 1015.1
20260506145313 67 82 1.0 3.0 0.00 0.00 0.00 78 1015.0
20260506145113 67 72 1.0 3.0 0.00 0.00 0.00 78 1014.9
20260506144915 67 72 1.0 3.0 0.00 0.00 0.00 79 1015.0
20260506144714 67 62 1.0 3.0 0.00 0.00 0.00 79 1015.1
20260506144511 67 62 1.0 3.0 0.00 0.00 0.00 79 1015.1
20260506144311 67 48 1.0 3.0 0.00 0.00 0.00 79 1015.1
20260506144110 67 77 1.0 3.0 0.00 0.00 0.00 79 1015.1
20260506143910 67 76 1.0 3.0 0.00 0.00 0.00 79 1015.1
20260506143710 67 56 1.0 3.0 0.00 0.00 0.00 79 1015.0
20260506143513 67 67 1.0 2.0 0.00 0.00 0.00 78 1014.8
20260506143312 67 66 1.0 2.0 0.00 0.00 0.00 78 1014.7
20260506142911 67 114 0.0 3.0 0.00 0.00 0.00 79 1014.7
20260506142709 67 114 1.0 3.0 0.00 0.00 0.00 79 1014.6
20260506142509 67 114 1.0 3.0 0.00 0.00 0.00 79 1014.6
20260506142309 66 113 1.0 3.0 0.00 0.00 0.00 79 1014.6
20260506142110 66 34 0.0 3.0 0.00 0.00 0.00 79 1014.6
20260506141908 66 98 0.0 3.0 0.00 0.00 0.00 79 1014.6
20260506141707 66 86 0.0 2.0 0.00 0.00 0.00 80 1014.6
20260506141507 66 86 0.0 2.0 0.00 0.00 0.00 80 1014.7
20260506141307 66 85 0.0 2.0 0.00 0.00 0.00 79 1014.7
20260506141107 66 85 0.0 2.0 0.00 0.00 0.00 79 1014.7
20260506140707 66 85 0.0 2.0 0.00 0.00 0.00 79 1014.8
20260506140507 66 84 0.0 2.0 0.00 0.00 0.00 79 1014.9
20260506140106 65 85 0.0 2.0 0.00 0.00 0.00 79 1014.9
20260506135907 65 93 0.0 2.0 0.00 0.00 0.00 80 1014.9
20260506135707 65 93 0.0 2.0 0.00 0.00 0.00 79 1014.9
20260506135506 65 93 1.0 2.0 0.00 0.00 0.00 80 1014.9
20260506135307 65 93 1.0 4.0 0.00 0.00 0.00 80 1014.9
20260506135106 65 93 1.0 4.0 0.00 0.00 0.00 80 1014.9
20260506134708 65 93 1.0 4.0 0.00 0.00 0.00 79 1014.9
20260506134508 65 57 1.0 4.0 0.00 0.00 0.00 79 1014.9
20260506134307 65 97 1.0 3.0 0.00 0.00 0.00 79 1015.1
20260506133908 65 84 1.0 3.0 0.00 0.00 0.00 80 1015.1
20260506133707 65 84 0.0 3.0 0.00 0.00 0.00 80 1015.1
20260506133307 65 80 1.0 4.0 0.00 0.00 0.00 80 1015.2
20260506132908 65 65 1.0 4.0 0.00 0.00 0.00 80 1015.2
20260506132706 65 65 1.0 4.0 0.00 0.00 0.00 80 1015.2
20260506132506 65 101 1.0 4.0 0.00 0.00 0.00 80 1015.2
20260506132308 65 98 1.0 4.0 0.00 0.00 0.00 80 1015.2
20260506131906 65 88 1.0 4.0 0.00 0.00 0.00 80 1015.4
20260506131507 65 88 1.0 4.0 0.00 0.00 0.00 79 1015.4
20260506131306 65 88 1.0 4.0 0.00 0.00 0.00 80 1015.4
20260506131107 65 59 1.0 4.0 0.00 0.00 0.00 80 1015.5
20260506130909 65 28 1.0 7.0 0.00 0.00 0.00 80 1015.5
20260506130706 65 29 1.0 7.0 0.00 0.00 0.00 80 1015.5
20260506130507 65 63 1.0 7.0 0.00 0.00 0.00 80 1015.5
20260506130307 65 61 1.0 7.0 0.00 0.00 0.00 80 1015.6
20260506130108 65 274 1.0 7.0 0.00 0.00 0.00 80 1015.6
20260506125909 65 107 1.0 5.0 0.00 0.00 0.00 80 1015.6
20260506125708 65 47 1.0 5.0 0.00 0.00 0.00 80 1015.7
20260506125306 65 134 1.0 5.0 0.00 0.00 0.00 80 1015.5
20260506125108 65 320 1.0 5.0 0.00 0.00 0.00 80 1015.4
20260506124908 65 63 1.0 5.0 0.00 0.00 0.00 80 1015.4
20260506124707 65 61 1.0 5.0 0.00 0.00 0.00 80 1015.3
20260506124306 65 155 1.0 5.0 0.00 0.00 0.00 80 1015.3
20260506124107 65 65 1.0 5.0 0.00 0.00 0.00 80 1015.2
20260506123907 65 65 1.0 5.0 0.00 0.00 0.00 80 1015.2
20260506123508 65 78 1.0 5.0 0.00 0.00 0.00 81 1015.1
20260506123308 65 69 1.0 5.0 0.00 0.00 0.00 80 1015.1
20260506123104 65 311 1.0 2.0 0.00 0.00 0.00 80 1015.0
20260506122906 65 323 0.0 2.0 0.00 0.00 0.00 80 1015.0
20260506122703 65 324 0.0 2.0 0.00 0.00 0.00 80 1015.0
20260506122504 65 321 0.0 2.0 0.00 0.00 0.00 80 1014.9
20260506122305 65 5 0.0 4.0 0.00 0.00 0.00 80 1014.9
20260506121659 65 300 1.0 4.0 0.00 0.00 0.00 80 1014.9
20260506121458 64 285 1.0 4.0 0.00 0.00 0.00 80 1014.9
20260506121300 65 57 1.0 4.0 0.00 0.00 0.00 80 1014.9
20260506120859 64 36 1.0 4.0 0.00 0.00 0.00 80 1014.9
20260506120659 64 230 0.0 3.0 0.00 0.00 0.00 80 1014.9
20260506120457 64 230 0.0 3.0 0.00 0.00 0.00 81 1014.8
20260506120258 64 103 0.0 2.0 0.00 0.00 0.00 81 1014.8
20260506120056 64 103 1.0 2.0 0.00 0.00 0.00 81 1014.8
20260506115255 64 91 1.0 3.0 0.00 0.00 0.00 81 1014.8
20260506115056 64 91 1.0 3.0 0.00 0.00 0.00 81 1014.7
20260506114852 64 95 1.0 4.0 0.00 0.00 0.00 81 1014.7
20260506114649 64 95 1.0 4.0 0.00 0.00 0.00 81 1014.5
20260506114447 64 111 1.0 4.0 0.00 0.00 0.00 81 1014.5
20260506114247 64 111 1.0 4.0 0.00 0.00 0.00 81 1014.5
20260506114049 64 134 1.0 4.0 0.00 0.00 0.00 81 1014.5
20260506113647 64 113 0.0 2.0 0.00 0.00 0.00 81 1014.7
20260506113447 64 88 0.0 2.0 0.00 0.00 0.00 81 1014.6
20260506113248 64 84 0.0 1.0 0.00 0.00 0.00 81 1014.6
20260506113048 64 84 0.0 1.0 0.00 0.00 0.00 81 1014.5
20260506112846 64 84 0.0 1.0 0.00 0.00 0.00 81 1014.5
20260506112445 64 84 0.0 1.0 0.00 0.00 0.00 81 1014.6
20260506112246 64 85 0.0 1.0 0.00 0.00 0.00 81 1014.5
20260506112045 64 86 0.0 2.0 0.00 0.00 0.00 80 1014.6
20260506111843 64 84 0.0 2.0 0.00 0.00 0.00 81 1014.5
20260506111439 64 80 0.0 2.0 0.00 0.00 0.00 81 1014.6
20260506111036 64 79 1.0 3.0 0.00 0.00 0.00 81 1014.8
20260506110433 63 79 1.0 3.0 0.00 0.00 0.00 80 1014.6
20260506110031 63 49 0.0 3.0 0.00 0.00 0.00 80 1014.6
20260506105626 63 74 1.0 3.0 0.00 0.00 0.00 81 1014.4
20260506105425 63 84 1.0 3.0 0.00 0.00 0.00 80 1014.3
20260506105225 63 85 1.0 5.0 0.00 0.00 0.00 80 1014.3
20260506105024 63 84 1.0 5.0 0.00 0.00 0.00 80 1014.4
20260506104825 63 73 1.0 5.0 0.00 0.00 0.00 80 1014.4
20260506104624 63 115 1.0 5.0 0.00 0.00 0.00 80 1014.4
20260506104424 63 115 1.0 5.0 0.00 0.00 0.00 80 1014.4
20260506104224 63 76 1.0 4.0 0.00 0.00 0.00 80 1014.4
20260506104027 63 54 0.0 4.0 0.00 0.00 0.00 80 1014.4
20260506103824 63 51 0.0 4.0 0.00 0.00 0.00 80 1014.3
20260506103623 63 64 0.0 4.0 0.00 0.00 0.00 80 1014.3
20260506103421 63 109 0.0 3.0 0.00 0.00 0.00 80 1014.2
20260506103219 63 109 1.0 3.0 0.00 0.00 0.00 80 1014.3
20260506103018 63 109 1.0 3.0 0.00 0.00 0.00 80 1014.3
20260506102816 63 109 1.0 3.0 0.00 0.00 0.00 80 1014.3
20260506102619 63 108 1.0 2.0 0.00 0.00 0.00 80 1014.3
20260506102217 63 109 1.0 2.0 0.00 0.00 0.00 80 1014.3
20260506102017 63 82 1.0 2.0 0.00 0.00 0.00 80 1014.3
20260506101812 63 82 1.0 2.0 0.00 0.00 0.00 80 1014.3
20260506101613 63 81 0.0 3.0 0.00 0.00 0.00 80 1014.3
20260506101212 63 71 0.0 3.0 0.00 0.00 0.00 80 1014.2
20260506101014 63 105 1.0 3.0 0.00 0.00 0.00 80 1014.2
20260506100814 63 105 1.0 3.0 0.00 0.00 0.00 80 1014.1
20260506100611 63 105 1.0 3.0 0.00 0.00 0.00 80 1014.2
20260506100412 63 107 1.0 3.0 0.00 0.00 0.00 80 1014.3
20260506095807 63 76 1.0 3.0 0.00 0.00 0.00 80 1014.5
20260506095608 63 46 1.0 3.0 0.00 0.00 0.00 80 1014.5
20260506095407 63 0 1.0 3.0 0.00 0.00 0.00 80 1014.6
20260506095205 63 355 1.0 3.0 0.00 0.00 0.00 80 1014.6
20260506094806 64 80 1.0 3.0 0.00 0.00 0.00 80 1014.6
20260506094605 64 78 1.0 3.0 0.00 0.00 0.00 80 1014.5
20260506094406 64 78 1.0 3.0 0.00 0.00 0.00 80 1014.5
20260506094203 64 107 1.0 3.0 0.00 0.00 0.00 80 1014.5
20260506094002 64 133 0.0 3.0 0.00 0.00 0.00 80 1014.6
20260506093803 64 49 1.0 3.0 0.00 0.00 0.00 80 1014.7
20260506093600 64 95 1.0 5.0 0.00 0.00 0.00 80 1014.7
20260506093402 64 65 1.0 5.0 0.00 0.00 0.00 80 1014.6
20260506093200 64 65 1.0 5.0 0.00 0.00 0.00 80 1014.7
20260506092958 64 121 1.0 5.0 0.00 0.00 0.00 80 1014.6
20260506092759 64 86 0.0 5.0 0.00 0.00 0.00 80 1014.6
20260506092600 64 80 1.0 5.0 0.00 0.00 0.00 80 1014.7
20260506092358 64 80 1.0 5.0 0.00 0.00 0.00 80 1014.7
20260506092156 64 80 1.0 5.0 0.00 0.00 0.00 80 1014.8
20260506091957 64 80 1.0 5.0 0.00 0.00 0.00 80 1014.8
20260506091757 64 80 1.0 5.0 0.00 0.00 0.00 80 1014.8
20260506091555 64 142 1.0 2.0 0.00 0.00 0.00 80 1014.8
20260506091357 64 142 1.0 2.0 0.00 0.00 0.00 80 1014.9
20260506091156 64 142 1.0 3.0 0.00 0.00 0.00 80 1014.9
20260506090954 64 142 1.0 3.0 0.00 0.00 0.00 80 1014.9
20260506090752 64 142 1.0 3.0 0.00 0.00 0.00 80 1014.9
20260506090550 64 142 1.0 4.0 0.00 0.00 0.00 80 1014.9
20260506090148 64 68 1.0 4.0 0.00 0.00 0.00 80 1014.9
20260506085949 64 117 1.0 4.0 0.00 0.00 0.00 80 1015.0
20260506085749 64 33 1.0 7.0 0.00 0.00 0.00 80 1014.9
20260506085548 64 137 1.0 7.0 0.00 0.00 0.00 80 1015.0
20260506085348 64 116 1.0 7.0 0.00 0.00 0.00 80 1015.1
20260506085147 64 99 1.0 7.0 0.00 0.00 0.00 80 1015.2
20260506084948 64 102 1.0 7.0 0.00 0.00 0.00 80 1015.1
20260506084546 64 127 0.0 2.0 0.00 0.00 0.00 80 1015.1
20260506084348 64 128 0.0 2.0 0.00 0.00 0.00 80 1015.2
20260506084146 64 128 0.0 2.0 0.00 0.00 0.00 80 1015.1
20260506083946 64 48 0.0 2.0 0.00 0.00 0.00 80 1015.0
20260506083743 64 46 0.0 2.0 0.00 0.00 0.00 80 1014.9
20260506083542 64 44 0.0 2.0 0.00 0.00 0.00 80 1015.1
20260506083138 64 44 0.0 3.0 0.00 0.00 0.00 80 1015.0
20260506082940 64 44 0.0 3.0 0.00 0.00 0.00 80 1014.9
20260506082539 64 41 1.0 4.0 0.00 0.00 0.00 80 1014.9
20260506082338 64 41 1.0 4.0 0.00 0.00 0.00 80 1014.9
20260506082139 64 98 1.0 4.0 0.00 0.00 0.00 80 1014.9
20260506081938 64 111 1.0 4.0 0.00 0.00 0.00 80 1014.9
20260506081534 64 65 1.0 3.0 0.00 0.00 0.00 80 1014.9
20260506081334 64 65 0.0 3.0 0.00 0.00 0.00 80 1014.9
20260506081134 64 65 0.0 3.0 0.00 0.00 0.00 80 1014.9
20260506080934 64 64 1.0 3.0 0.00 0.00 0.00 80 1015.0
20260506080734 64 316 1.0 6.0 0.00 0.00 0.00 80 1015.0
20260506080535 64 34 1.0 6.0 0.00 0.00 0.00 80 1014.9
20260506080333 64 34 1.0 6.0 0.00 0.00 0.00 80 1014.9
20260506080132 64 33 1.0 6.0 0.00 0.00 0.00 80 1014.9
20260506073523 64 71 1.0 5.0 0.00 0.00 0.00 79 1014.9
20260506073123 64 70 1.0 5.0 0.00 0.00 0.00 79 1015.0
20260506072920 64 332 1.0 5.0 0.00 0.00 0.00 79 1015.0
20260506072719 64 117 0.0 5.0 0.00 0.00 0.00 79 1015.1
20260506072516 64 117 1.0 5.0 0.00 0.00 0.00 79 1015.0
20260506072315 64 124 1.0 5.0 0.00 0.00 0.00 79 1014.9
20260506072116 64 132 1.0 5.0 0.00 0.00 0.00 79 1015.0
20260506071916 64 135 1.0 5.0 0.00 0.00 0.00 79 1015.0
20260506071716 64 134 0.0 5.0 0.00 0.00 0.00 79 1015.0
20260506071516 64 158 0.0 3.0 0.00 0.00 0.00 79 1015.1
20260506071112 64 46 0.0 7.0 0.00 0.00 0.00 79 1015.2
20260506070910 64 46 1.0 7.0 0.00 0.00 0.00 79 1015.2
20260506070711 64 46 1.0 7.0 0.00 0.00 0.00 79 1015.2
20260506070510 64 46 0.0 7.0 0.00 0.00 0.00 79 1015.2
20260506070310 64 71 0.0 3.0 0.00 0.00 0.00 79 1015.2
20260506070109 64 121 1.0 3.0 0.00 0.00 0.00 79 1015.2
20260506062450 65 68 0.0 4.0 0.00 0.00 0.00 78 1015.3
20260506062250 65 67 0.0 4.0 0.00 0.00 0.00 78 1015.4
20260506062048 65 66 1.0 4.0 0.00 0.00 0.00 78 1015.3
20260506061847 65 61 1.0 4.0 0.00 0.00 0.00 78 1015.3
20260506061644 65 60 1.0 4.0 0.00 0.00 0.00 78 1015.3
20260506061442 65 36 1.0 4.0 0.00 0.00 0.00 78 1015.4
20260506061242 65 34 1.0 4.0 0.00 0.00 0.00 78 1015.5
20260506061042 65 34 1.0 4.0 0.00 0.00 0.00 78 1015.5
20260506060842 65 34 1.0 4.0 0.00 0.00 0.00 78 1015.5
20260506060643 65 30 1.0 4.0 0.00 0.00 0.00 78 1015.5
20260506060242 65 100 1.0 3.0 0.00 0.00 0.00 78 1015.6
20260506051229 66 109 1.0 4.0 0.00 0.00 0.00 76 1015.8
20260506051030 66 109 1.0 5.0 0.00 0.00 0.00 76 1015.7
20260506050828 66 108 1.0 5.0 0.00 0.00 0.00 76 1015.7
20260506050428 67 72 1.0 5.0 0.00 0.00 0.00 76 1015.7
20260506050226 67 72 1.0 5.0 0.00 0.00 0.00 76 1015.7
20260506045022 67 80 1.0 3.0 0.00 0.00 0.00 75 1016.2
20260506044822 67 80 1.0 5.0 0.00 0.00 0.00 75 1016.2
20260506044621 67 99 1.0 5.0 0.00 0.00 0.00 75 1016.2
20260506044420 67 65 1.0 5.0 0.00 0.00 0.00 75 1016.2
20260506044217 67 80 1.0 5.0 0.00 0.00 0.00 75 1016.1
20260506044014 67 80 1.0 5.0 0.00 0.00 0.00 75 1016.1
20260506043814 67 123 1.0 3.0 0.00 0.00 0.00 75 1016.2
20260506043615 67 196 1.0 3.0 0.00 0.00 0.00 75 1016.1
20260506043414 67 146 1.0 3.0 0.00 0.00 0.00 75 1016.1
20260506043213 67 107 1.0 3.0 0.00 0.00 0.00 74 1015.9
20260506043012 67 106 1.0 3.0 0.00 0.00 0.00 74 1015.9
20260506042812 67 136 1.0 3.0 0.00 0.00 0.00 74 1015.9
20260506042609 67 87 1.0 5.0 0.00 0.00 0.00 74 1015.9
20260506042410 67 46 1.0 5.0 0.00 0.00 0.00 74 1015.9
20260506042209 67 48 1.0 5.0 0.00 0.00 0.00 74 1015.9
20260506042009 67 42 1.0 5.0 0.00 0.00 0.00 74 1015.8
20260506041806 67 119 1.0 5.0 0.00 0.00 0.00 73 1015.7
20260506041607 67 86 1.0 3.0 0.00 0.00 0.00 74 1015.7
20260506041407 68 88 1.0 3.0 0.00 0.00 0.00 73 1015.6
20260506041005 68 113 1.0 3.0 0.00 0.00 0.00 73 1015.8
20260506040802 68 113 1.0 3.0 0.00 0.00 0.00 73 1015.8
20260506040559 68 113 1.0 3.0 0.00 0.00 0.00 73 1015.7
20260506040359 68 113 1.0 4.0 0.00 0.00 0.00 73 1015.7
20260506040155 68 115 1.0 4.0 0.00 0.00 0.00 73 1015.8
20260506035956 68 125 1.0 4.0 0.00 0.00 0.00 73 1015.8
20260506035756 68 231 1.0 9.0 0.00 0.00 0.00 73 1015.8
20260506035557 68 190 1.0 9.0 0.00 0.00 0.00 72 1015.8
20260506035356 68 85 1.0 9.0 0.00 0.00 0.00 72 1015.7
20260506035154 68 70 1.0 9.0 0.00 0.00 0.00 72 1015.9
20260506034754 68 106 1.0 4.0 0.00 0.00 0.00 72 1015.7
20260506034555 68 83 1.0 2.0 0.00 0.00 0.00 72 1015.7
20260506034354 68 79 1.0 3.0 0.00 0.00 0.00 71 1015.6
20260506034155 69 14 1.0 3.0 0.00 0.00 0.00 72 1015.7
20260506033955 69 103 1.0 3.0 0.00 0.00 0.00 71 1015.7
20260506033753 69 103 1.0 3.0 0.00 0.00 0.00 71 1015.6
20260506033350 69 105 1.0 3.0 0.00 0.00 0.00 71 1015.6
20260506032950 69 117 1.0 3.0 0.00 0.00 0.00 70 1015.8
20260506032750 69 119 1.0 3.0 0.00 0.00 0.00 70 1015.8
20260506032349 69 49 1.0 3.0 0.00 0.00 0.00 70 1015.8
20260506032149 69 99 1.0 3.0 0.00 0.00 0.00 70 1015.9
20260506031947 69 13 1.0 6.0 0.00 0.00 0.00 70 1015.9
20260506031745 69 76 1.0 6.0 0.00 0.00 0.00 70 1015.9
20260506031546 69 135 1.0 6.0 0.00 0.00 0.00 70 1015.8
20260506031345 69 136 1.0 6.0 0.00 0.00 0.00 70 1015.8
20260506031145 69 74 1.0 6.0 0.00 0.00 0.00 70 1015.8
20260506030942 69 305 1.0 6.0 0.00 0.00 0.00 70 1015.9
20260506030744 69 107 1.0 6.0 0.00 0.00 0.00 69 1015.8
20260506030543 69 126 1.0 6.0 0.00 0.00 0.00 69 1015.8
20260506030140 70 126 1.0 6.0 0.00 0.00 0.00 69 1015.8
20260506025741 70 92 1.0 5.0 0.00 0.00 0.00 69 1015.9
20260506025539 70 89 1.0 5.0 0.00 0.00 0.00 68 1015.8
20260506025336 70 97 1.0 5.0 0.00 0.00 0.00 68 1015.9
20260506025137 70 70 1.0 4.0 0.00 0.00 0.00 68 1015.9
20260506024936 70 118 1.0 4.0 0.00 0.00 0.00 68 1015.9
20260506024735 70 105 1.0 4.0 0.00 0.00 0.00 68 1015.9
20260506024536 70 76 1.0 3.0 0.00 0.00 0.00 68 1015.9
20260506024135 70 44 1.0 3.0 0.00 0.00 0.00 67 1015.8
20260506023937 70 44 1.0 3.0 0.00 0.00 0.00 67 1015.9
20260506023736 70 51 1.0 3.0 0.00 0.00 0.00 67 1015.9
20260506023334 70 64 1.0 2.0 0.00 0.00 0.00 67 1015.9
20260506023134 70 63 1.0 3.0 0.00 0.00 0.00 67 1015.9
20260506022734 70 125 1.0 3.0 0.00 0.00 0.00 66 1015.9
20260506022534 70 126 1.0 3.0 0.00 0.00 0.00 66 1015.8
20260506022335 70 126 1.0 3.0 0.00 0.00 0.00 66 1015.8
20260506021932 70 126 0.0 3.0 0.00 0.00 0.00 65 1015.8
20260506021732 71 114 0.0 3.0 0.00 0.00 0.00 65 1015.8
20260506021530 71 113 0.0 3.0 0.00 0.00 0.00 65 1015.9
20260506021329 71 114 0.0 3.0 0.00 0.00 0.00 65 1015.8
20260506020926 71 114 1.0 4.0 0.00 0.00 0.00 64 1015.8
20260506020725 71 114 1.0 5.0 0.00 0.00 0.00 64 1015.7
20260506020523 71 114 1.0 5.0 0.00 0.00 0.00 64 1015.7
20260506020322 71 98 1.0 5.0 0.00 0.00 0.00 64 1015.7
20260506020122 71 98 1.0 5.0 0.00 0.00 0.00 63 1015.6
20260506015923 71 49 0.0 5.0 0.00 0.00 0.00 64 1015.6
20260506015723 71 68 0.0 3.0 0.00 0.00 0.00 63 1015.6
20260506015524 71 50 0.0 2.0 0.00 0.00 0.00 62 1015.5
20260506015320 71 43 0.0 2.0 0.00 0.00 0.00 62 1015.5
20260506015121 71 42 0.0 3.0 0.00 0.00 0.00 62 1015.5
20260506014919 71 42 0.0 3.0 0.00 0.00 0.00 62 1015.6
20260506014720 71 42 0.0 3.0 0.00 0.00 0.00 62 1015.5
20260506014517 71 139 0.0 3.0 0.00 0.00 0.00 62 1015.5
20260506014113 71 68 0.0 2.0 0.00 0.00 0.00 62 1015.4
20260506013912 71 68 0.0 2.0 0.00 0.00 0.00 61 1015.3
20260506013710 71 63 0.0 0.0 0.00 0.00 0.00 61 1015.3
20260506013508 71 63 0.0 0.0 0.00 0.00 0.00 60 1015.3
20260506013310 71 63 0.0 0.0 0.00 0.00 0.00 61 1015.3
20260506013109 71 63 0.0 0.0 0.00 0.00 0.00 61 1015.3
20260506012705 72 63 0.0 0.0 0.00 0.00 0.00 61 1015.2
20260506012504 72 63 0.0 0.0 0.00 0.00 0.00 61 1015.2
20260506012308 72 63 0.0 0.0 0.00 0.00 0.00 61 1015.3
20260506012101 72 63 0.0 1.0 0.00 0.00 0.00 61 1015.2
20260506011859 72 63 0.0 1.0 0.00 0.00 0.00 60 1015.1
20260506011658 72 63 0.0 1.0 0.00 0.00 0.00 61 1015.1
20260506011500 72 63 0.0 1.0 0.00 0.00 0.00 61 1015.2
20260506011056 73 62 0.0 4.0 0.00 0.00 0.00 60 1015.0
20260506010857 73 62 0.0 4.0 0.00 0.00 0.00 59 1015.0
20260506010655 73 62 0.0 4.0 0.00 0.00 0.00 58 1015.1
20260506010454 73 62 0.0 4.0 0.00 0.00 0.00 58 1015.0
20260506010254 73 62 0.0 4.0 0.00 0.00 0.00 58 1015.0
20260506010055 73 81 0.0 1.0 0.00 0.00 0.00 57 1015.0
20260506005451 73 81 0.0 1.0 0.00 0.00 0.00 56 1014.9
20260506005250 74 81 0.0 1.0 0.00 0.00 0.00 56 1014.9
20260506004847 74 81 0.0 1.0 0.00 0.00 0.00 56 1014.8
20260506004246 74 81 0.0 2.0 0.00 0.00 0.00 55 1014.8
20260506004047 74 81 0.0 2.0 0.00 0.00 0.00 55 1014.7
20260506003644 74 81 0.0 3.0 0.00 0.00 0.00 54 1014.6
20260506003445 74 81 0.0 3.0 0.00 0.00 0.00 54 1014.6
20260506003245 74 81 0.0 3.0 0.00 0.00 0.00 54 1014.6
20260506002843 75 87 0.0 2.0 0.00 0.00 0.00 54 1014.6
20260506002641 75 87 0.0 3.0 0.00 0.00 0.00 54 1014.5
20260506002439 75 87 0.0 3.0 0.00 0.00 0.00 53 1014.5
20260506002240 75 87 0.0 3.0 0.00 0.00 0.00 53 1014.6
20260506002037 75 87 0.0 3.0 0.00 0.00 0.00 54 1014.5
20260506001836 75 61 0.0 3.0 0.00 0.00 0.00 53 1014.5
20260506001635 75 85 0.0 3.0 0.00 0.00 0.00 53 1014.5
20260506001435 75 85 0.0 3.0 0.00 0.00 0.00 53 1014.5
20260506001233 75 5 1.0 3.0 0.00 0.00 0.00 53 1014.5
20260506001034 75 5 1.0 3.0 0.00 0.00 0.00 53 1014.4
20260506000834 76 5 1.0 3.0 0.00 0.00 0.00 53 1014.4
20260506000634 76 5 1.0 3.0 0.00 0.00 0.00 52 1014.3
20260506000434 76 77 1.0 3.0 0.00 0.00 0.00 52 1014.3
20260506000235 76 75 1.0 3.0 0.00 0.00 0.00 52 1014.3
20260506000034 76 65 1.0 2.0 0.00 0.00 0.00 52 1014.3
20260505235836 76 65 1.0 2.0 0.00 0.00 0.00 52 1014.3
20260505235636 76 113 1.0 2.0 0.00 0.00 0.00 51 1014.2
20260505235435 76 114 1.0 2.0 0.00 0.00 0.00 51 1014.2
20260505235236 76 113 1.0 2.0 0.00 0.00 0.00 51 1014.2
20260505235036 76 57 1.0 2.0 0.00 0.00 0.00 51 1014.2
20260505234834 76 92 1.0 2.0 0.00 0.00 0.00 51 1014.2
20260505234233 77 92 1.0 4.0 0.00 0.00 0.00 50 1014.2
20260505233830 77 115 0.0 4.0 0.00 0.00 0.00 50 1014.1
20260505233428 77 101 0.0 2.0 0.00 0.00 0.00 50 1014.1
20260505233228 77 104 0.0 1.0 0.00 0.00 0.00 49 1014.1
20260505233029 77 103 0.0 1.0 0.00 0.00 0.00 49 1014.1
20260505232825 77 70 0.0 3.0 0.00 0.00 0.00 49 1014.1
20260505232621 77 70 0.0 3.0 0.00 0.00 0.00 49 1014.1
20260505232419 77 70 1.0 3.0 0.00 0.00 0.00 49 1014.2
20260505232218 78 70 1.0 3.0 0.00 0.00 0.00 49 1014.1
20260505232017 78 17 1.0 3.0 0.00 0.00 0.00 49 1014.1
20260505231817 78 59 1.0 4.0 0.00 0.00 0.00 49 1014.1
20260505231412 78 57 1.0 4.0 0.00 0.00 0.00 49 1014.1
20260505231211 78 56 1.0 5.0 0.00 0.00 0.00 49 1014.1
20260505230813 78 74 2.0 7.0 0.00 0.00 0.00 48 1014.1
20260505230613 78 73 2.0 7.0 0.00 0.00 0.00 48 1014.1
20260505230413 78 168 1.0 7.0 0.00 0.00 0.00 47 1014.1
20260505230211 78 119 1.0 7.0 0.00 0.00 0.00 48 1014.1
20260505230012 78 69 1.0 6.0 0.00 0.00 0.00 47 1014.2
20260505225813 78 78 1.0 6.0 0.00 0.00 0.00 47 1014.2
20260505225612 78 126 1.0 3.0 0.00 0.00 0.00 48 1014.0
20260505225211 78 329 1.0 4.0 0.00 0.00 0.00 47 1014.2
20260505225010 78 328 1.0 4.0 0.00 0.00 0.00 47 1014.1
20260505224610 78 92 1.0 4.0 0.00 0.00 0.00 47 1014.2
20260505224210 78 148 1.0 3.0 0.00 0.00 0.00 47 1014.2
20260505223810 78 34 1.0 3.0 0.00 0.00 0.00 47 1014.2
20260505223610 78 34 1.0 3.0 0.00 0.00 0.00 47 1014.2
20260505223209 78 86 1.0 4.0 0.00 0.00 0.00 47 1014.2
20260505223012 78 311 1.0 4.0 0.00 0.00 0.00 47 1014.3
20260505222811 78 271 1.0 4.0 0.00 0.00 0.00 47 1014.3
20260505222609 78 271 1.0 5.0 0.00 0.00 0.00 48 1014.3
20260505222408 79 271 1.0 5.0 0.00 0.00 0.00 47 1014.3
20260505222208 78 103 1.0 5.0 0.00 0.00 0.00 46 1014.3
20260505222009 79 41 1.0 5.0 0.00 0.00 0.00 46 1014.3
20260505221809 79 106 1.0 5.0 0.00 0.00 0.00 47 1014.3
20260505221607 79 120 1.0 5.0 0.00 0.00 0.00 46 1014.3
20260505221405 79 30 1.0 5.0 0.00 0.00 0.00 46 1014.3
20260505221206 79 156 1.0 5.0 0.00 0.00 0.00 46 1014.4
20260505221006 79 123 2.0 5.0 0.00 0.00 0.00 46 1014.4
20260505220805 79 141 2.0 9.0 0.00 0.00 0.00 46 1014.5
20260505220606 79 10 2.0 9.0 0.00 0.00 0.00 46 1014.4
20260505220407 79 36 2.0 9.0 0.00 0.00 0.00 45 1014.4
20260505220205 79 30 2.0 9.0 0.00 0.00 0.00 46 1014.4
20260505220004 79 300 2.0 9.0 0.00 0.00 0.00 46 1014.5
20260505215805 79 295 1.0 6.0 0.00 0.00 0.00 46 1014.5
20260505215604 79 193 1.0 6.0 0.00 0.00 0.00 46 1014.5
20260505215403 79 192 2.0 6.0 0.00 0.00 0.00 46 1014.5
20260505215204 79 310 2.0 6.0 0.00 0.00 0.00 46 1014.5
20260505215003 79 306 2.0 7.0 0.00 0.00 0.00 45 1014.4
20260505214803 79 209 2.0 7.0 0.00 0.00 0.00 45 1014.4
20260505214604 79 142 2.0 7.0 0.00 0.00 0.00 45 1014.4
20260505214404 80 119 2.0 7.0 0.00 0.00 0.00 44 1014.5
20260505214204 80 85 2.0 7.0 0.00 0.00 0.00 45 1014.4
20260505214005 80 103 2.0 6.0 0.00 0.00 0.00 45 1014.5
20260505213806 80 103 2.0 6.0 0.00 0.00 0.00 45 1014.4
20260505213604 80 150 2.0 6.0 0.00 0.00 0.00 45 1014.4
20260505213404 80 109 2.0 6.0 0.00 0.00 0.00 45 1014.4
20260505213205 80 116 2.0 6.0 0.00 0.00 0.00 46 1014.4
20260505213004 80 81 2.0 6.0 0.00 0.00 0.00 46 1014.4
20260505212803 80 161 1.0 6.0 0.00 0.00 0.00 45 1014.4
20260505212606 80 200 1.0 5.0 0.00 0.00 0.00 46 1014.4
20260505212404 80 343 1.0 5.0 0.00 0.00 0.00 45 1014.5
20260505212206 80 88 2.0 5.0 0.00 0.00 0.00 45 1014.6
20260505212005 80 81 2.0 5.0 0.00 0.00 0.00 45 1014.6
20260505211604 80 41 2.0 4.0 0.00 0.00 0.00 46 1014.5